Adelanto, California, United States (92301)
Lat: 34.58N, Lon: 117.41W
Wx Zone: CAZ060
Local Info
Past Weather Observations for Yesterday

NOTE: This archive is for the closest National Weather Service station to Adelanto. Information may differ from the station used for current weather conditions.

Click here for Long-term Archive

Time Weather Temperature Dewpoint Humidity Pressure Winds Precip Visibility
23:55
Clear
70°F / 21°C 36°F / 2°C 29% 30.06 in
(1018 mb)
SSE 19.6 mph
(SSE 32 kph)
- 10SM
23:35
Clear
70°F / 21°C 36°F / 2°C 29% 30.06 in
(1018 mb)
SSE 15 mph
(SSE 24 kph)
- 10SM
23:15
Clear
70°F / 21°C 37°F / 3°C 31% 30.06 in
(1018 mb)
SSE 19.6 mph
(SSE 32 kph)
- 10SM
22:55
Clear
70°F / 21°C 37°F / 3°C 31% 30.06 in
(1018 mb)
SSE 19.6 mph
(SSE 32 kph)
- 10SM
22:35
Clear
70°F / 21°C 37°F / 3°C 31% 30.09 in
(1019 mb)
SSE 18.4 mph
(SSE 30 kph)
- 10SM
22:15
Clear
70°F / 21°C 36°F / 2°C 29% 30.09 in
(1019 mb)
SE 16.1 mph
(SE 26 kph)
- 10SM
21:55
Clear
70°F / 21°C 37°F / 3°C 31% 30.06 in
(1018 mb)
S 18.4 mph
(S 30 kph)
- 10SM
21:35
Clear
70°F / 21°C 36°F / 2°C 29% 30.06 in
(1018 mb)
S 17.3 mph
(S 28 kph)
- 10SM
21:15
Clear
70°F / 21°C 36°F / 2°C 29% 30.06 in
(1018 mb)
S 19.6 mph
(S 32 kph)
- 10SM
20:55
Clear
72°F / 22°C 37°F / 3°C 29% 30.06 in
(1018 mb)
SSE 12.7 mph
(SSE 20 kph)
- 10SM
20:35
Clear
70°F / 21°C 36°F / 2°C 29% 30.06 in
(1018 mb)
SE 9.2 mph
(SE 15 kph)
- 10SM
20:15
Clear
72°F / 22°C 36°F / 2°C 27% 30.06 in
(1018 mb)
SSE 12.7 mph
(SSE 20 kph)
- 10SM
19:55
Clear
72°F / 22°C 34°F / 1°C 25% 30.06 in
(1018 mb)
S 17.3 mph
(S 28 kph)
- 10SM
19:35
Clear
72°F / 22°C 32°F / 0°C 23% 30.06 in
(1018 mb)
SSE 15 mph
(SSE 24 kph)
- 10SM
19:15
Clear
73°F / 23°C 30°F / -1°C 20% 30.04 in
(1017 mb)
SSE 13.8 mph
(SSE 22 kph)
- 10SM
18:55
Clear
73°F / 23°C 28°F / -2°C 19% 30.04 in
(1017 mb)
SSE 12.7 mph
(SSE 20 kph)
- 10SM
18:35
Clear
73°F / 23°C 28°F / -2°C 19% 30.04 in
(1017 mb)
SE 10.4 mph
(SE 17 kph)
- 10SM
18:15
Clear
73°F / 23°C 30°F / -1°C 20% 30.04 in
(1017 mb)
SSE 11.5 mph
(SSE 19 kph)
- 10SM
17:55
Clear
75°F / 24°C 32°F / 0°C 21% 30.04 in
(1017 mb)
SSE 13.8 mph
(SSE 22 kph)
- 10SM
17:35
Clear
77°F / 25°C 30°F / -1°C 18% 30.04 in
(1017 mb)
S 11.5 mph
(S 19 kph)
- 10SM
17:15
Clear
79°F / 26°C 28°F / -2°C 16% 30.01 in
(1016 mb)
S 12.7 mph
(S 20 kph)
- 10SM
16:55
Clear
81°F / 27°C 28°F / -2°C 15% 30.01 in
(1016 mb)
S 10.4 mph
(S 17 kph)
- 10SM
16:35
Clear
82°F / 28°C 30°F / -1°C 15% 30.01 in
(1016 mb)
SSE 9.2 mph
(SSE 15 kph)
- 10SM
16:15
Clear
82°F / 28°C 30°F / -1°C 15% 30.01 in
(1016 mb)
S 18.4 mph
(S 30 kph)
- 10SM
15:55
Clear
84°F / 29°C 30°F / -1°C 14% 30.01 in
(1016 mb)
S 17.3 mph
(S 28 kph)
- 10SM
15:35
Clear
84°F / 29°C 28°F / -2°C 13% 30.01 in
(1016 mb)
S 18.4 mph
(S 30 kph)
- 10SM
15:15
Clear
86°F / 30°C 28°F / -2°C 12% 30.01 in
(1016 mb)
S 18.4 mph
(S 30 kph)
- 10SM
14:55
Clear
86°F / 30°C 28°F / -2°C 12% 30.01 in
(1016 mb)
S 20.7 mph
(S 33 kph)
- 10SM
14:35
Clear
88°F / 31°C 28°F / -2°C 12% 30.01 in
(1016 mb)
S 20.7 mph
(S 33 kph)
- 10SM
14:15
Clear
88°F / 31°C 28°F / -2°C 12% 30.01 in
(1016 mb)
S 18.4 mph
(S 30 kph)
- 10SM
13:55
Clear
88°F / 31°C 30°F / -1°C 13% 30.01 in
(1016 mb)
S 20.7 mph
(S 33 kph)
- 10SM
13:35
Clear
88°F / 31°C 30°F / -1°C 13% 30.01 in
(1016 mb)
SSE 17.3 mph
(SSE 28 kph)
- 10SM
13:15
Clear
88°F / 31°C 30°F / -1°C 13% 30.04 in
(1017 mb)
SSE 18.4 mph
(SSE 30 kph)
- 10SM
12:55
Clear
88°F / 31°C 32°F / 0°C 13% 30.04 in
(1017 mb)
S 17.3 mph
(S 28 kph)
- 10SM
12:35
Partly Cloudy
88°F / 31°C 30°F / -1°C 13% 30.04 in
(1017 mb)
S 15 mph
(S 24 kph)
- 10SM
12:15
Partly Cloudy
88°F / 31°C 30°F / -1°C 13% 30.04 in
(1017 mb)
SSE 16.1 mph
(SSE 26 kph)
- 10SM
11:55
Clear
88°F / 31°C 30°F / -1°C 13% 30.06 in
(1018 mb)
S 16.1 mph
(S 26 kph)
- 10SM
11:35
Clear
88°F / 31°C 28°F / -2°C 12% 30.06 in
(1018 mb)
SSE 10.4 mph
(SSE 17 kph)
- 10SM
11:15
Clear
86°F / 30°C 27°F / -3°C 11% 30.06 in
(1018 mb)
S 11.5 mph
(S 19 kph)
- 10SM
10:55
Clear
82°F / 28°C 28°F / -2°C 14% 30.09 in
(1019 mb)
Calm - 10SM
10:35
Clear
82°F / 28°C 28°F / -2°C 14% 30.09 in
(1019 mb)
NE 5.8 mph
(NE 9 kph)
- 10SM
10:15
Clear
81°F / 27°C 28°F / -2°C 15% 30.09 in
(1019 mb)
NE 5.8 mph
(NE 9 kph)
- 10SM
09:55
Clear
79°F / 26°C 28°F / -2°C 16% 30.09 in
(1019 mb)
NE 5.8 mph
(NE 9 kph)
- 10SM
09:35
Clear
77°F / 25°C 27°F / -3°C 15% 30.12 in
(1020 mb)
N 3.5 mph
(N 6 kph)
- 10SM
09:15
Clear
75°F / 24°C 28°F / -2°C 18% 30.12 in
(1020 mb)
NE 3.5 mph
(NE 6 kph)
- 10SM
08:55
Clear
73°F / 23°C 25°F / -4°C 16% 30.12 in
(1020 mb)
Calm - 10SM
08:35
Clear
72°F / 22°C 27°F / -3°C 19% 30.12 in
(1020 mb)
Calm - 10SM
08:15
Clear
68°F / 20°C 28°F / -2°C 23% 30.12 in
(1020 mb)
Calm - 10SM
07:55
Clear
66°F / 19°C 28°F / -2°C 24% 30.12 in
(1020 mb)
Calm - 10SM
07:35
Clear
63°F / 17°C 28°F / -2°C 27% 30.12 in
(1020 mb)
Calm - 10SM
07:15
Clear
61°F / 16°C 28°F / -2°C 29% 30.09 in
(1019 mb)
Calm - 10SM
06:55
Clear
57°F / 14°C 27°F / -3°C 31% 30.09 in
(1019 mb)
SSE 5.8 mph
(SSE 9 kph)
- 10SM
06:35
Clear
57°F / 14°C 27°F / -3°C 31% 30.09 in
(1019 mb)
SSE 3.5 mph
(SSE 6 kph)
- 10SM
06:15
Clear
54°F / 12°C 27°F / -3°C 35% 30.09 in
(1019 mb)
S 6.9 mph
(S 11 kph)
- 10SM
05:55
Clear
55°F / 13°C 27°F / -3°C 33% 30.06 in
(1018 mb)
S 5.8 mph
(S 9 kph)
- 10SM
05:35
Clear
54°F / 12°C 27°F / -3°C 35% 30.06 in
(1018 mb)
S 6.9 mph
(S 11 kph)
- 10SM
05:15
Clear
54°F / 12°C 27°F / -3°C 35% 30.06 in
(1018 mb)
Calm - 10SM
04:55
Clear
55°F / 13°C 27°F / -3°C 33% 30.06 in
(1018 mb)
S 5.8 mph
(S 9 kph)
- 10SM
04:35
Clear
54°F / 12°C 25°F / -4°C 33% 30.06 in
(1018 mb)
SSE 4.6 mph
(SSE 7 kph)
- 10SM
04:15
Clear
52°F / 11°C 25°F / -4°C 35% 30.06 in
(1018 mb)
Calm - 10SM
03:55
Clear
55°F / 13°C 25°F / -4°C 31% 30.06 in
(1018 mb)
Calm - 10SM
03:35
Clear
55°F / 13°C 25°F / -4°C 31% 30.06 in
(1018 mb)
Calm - 10SM
03:15
Clear
57°F / 14°C 27°F / -3°C 31% 30.06 in
(1018 mb)
Calm - 10SM
02:55
Clear
54°F / 12°C 25°F / -4°C 33% 30.06 in
(1018 mb)
Calm - 10SM
02:35
Clear
54°F / 12°C 25°F / -4°C 33% 30.06 in
(1018 mb)
Calm - 10SM
02:15
Clear
55°F / 13°C 27°F / -3°C 33% 30.06 in
(1018 mb)
Calm - 10SM
01:55
Clear
55°F / 13°C 25°F / -4°C 31% 30.06 in
(1018 mb)
Calm - 10SM
01:35
Clear
61°F / 16°C 27°F / -3°C 27% 30.06 in
(1018 mb)
Calm - 10SM
01:15
Clear
59°F / 15°C 27°F / -3°C 29% 30.06 in
(1018 mb)
Calm - 10SM
00:55
Clear
61°F / 16°C 27°F / -3°C 27% 30.09 in
(1019 mb)
Calm - 10SM
00:35
Clear
61°F / 16°C 27°F / -3°C 27% 30.09 in
(1019 mb)
Calm - 10SM
00:15
Clear
61°F / 16°C 27°F / -3°C 27% 30.09 in
(1019 mb)
Calm - 10SM
Time Weather Temperature Dewpoint Humidity Pressure Winds Precip Visibility


Weather for websites

WeatherForYou.com, LLC is not responsible for any damages or problems caused by this service. Current weather conditions are obtained from the closest station including government and personal stations which may have varying degrees of accuracy. Weather forecasts are derived from the NOAA NDFD. Like all things, this site belongs to Jesus Christ... He just trusts me to maintain it. If you have any questions or comments email webmaster@weatherforyou.com

Copyright © 2014, WeatherForYou.com LLC. All rights reserved.